| time (UTC) | temp C | wind direction | speed KPH | gust KPH | rain 1hr cm | rain 24hr cm | rain mn cm | humidity % | barometer mb |
| 20260504090105 | 22 | 114 | 40.2 | 54.7 | 0.00 | 0.00 | 0.00 | 1018.4 | |
| 20260504081258 | 20 | 151 | 46.7 | 54.7 | 0.00 | 0.00 | 0.00 | 1018.5 | |
| 20260504080415 | 20 | 123 | 43.5 | 54.7 | 0.00 | 0.00 | 0.00 | 1018.9 | |
| 20260504060234 | 16 | 178 | 40.2 | 61.2 | 0.00 | 0.00 | 0.00 | 1018.7 | |
| 20260504045125 | 15 | 156 | 20.9 | 32.2 | 0.00 | 0.00 | 0.00 | 1018.8 | |
| 20260504044137 | 13 | 100 | 25.7 | 25.7 | 0.00 | 0.00 | 0.00 | 1018.7 | |
| 20260504043300 | 13 | 94 | 11.3 | 14.5 | 0.00 | 0.00 | 0.00 | 1018.9 | |
| 20260504042448 | 13 | 176 | 17.7 | 17.7 | 0.00 | 0.00 | 0.00 | 1018.6 | |
| 20260504041615 | 12 | 93 | 17.7 | 17.7 | 0.00 | 0.00 | 0.00 | 1018.6 | |
| 20260504040725 | 12 | 83 | 11.3 | 14.5 | 0.00 | 0.00 | 0.00 | 1018.8 | |
| 20260504035752 | 12 | 89 | 14.5 | 14.5 | 0.00 | 0.00 | 0.00 | 1018.8 | |
| 20260504034838 | 12 | 145 | 25.7 | 40.2 | 0.00 | 0.00 | 0.00 | 1018.7 | |
| 20260504033954 | 12 | 84 | 20.9 | 32.2 | 0.00 | 0.00 | 0.00 | 1018.7 | |
| 20260504033035 | 12 | 111 | 20.9 | 25.7 | 0.00 | 0.00 | 0.00 | 1018.6 | |
| 20260504032013 | 12 | 96 | 14.5 | 17.7 | 0.00 | 0.00 | 0.00 | 1018.8 | |
| 20260504031134 | 12 | 90 | 14.5 | 14.5 | 0.00 | 0.00 | 0.00 | 1018.7 | |
| 20260504030308 | 12 | 118 | 25.7 | 25.7 | 0.00 | 0.00 | 0.00 | 1018.6 | |
| 20260504025300 | 12 | 105 | 14.5 | 17.7 | 0.00 | 0.00 | 0.00 | 1018.6 | |
| 20260504024454 | 12 | 105 | 14.5 | 17.7 | 0.00 | 0.00 | 0.00 | 1018.8 | |
| 20260504023542 | 13 | 100 | 14.5 | 17.7 | 0.00 | 0.00 | 0.00 | 1018.5 | |
| 20260504022546 | 13 | 142 | 25.7 | 32.2 | 0.00 | 0.00 | 0.00 | 1018.5 | |
| 20260504021607 | 13 | 102 | 17.7 | 25.7 | 0.00 | 0.00 | 0.00 | 1018.7 | |
| 20260504020633 | 13 | 129 | 29.0 | 32.2 | 0.00 | 0.00 | 0.00 | 1018.5 | |
| 20260504015634 | 13 | 125 | 20.9 | 25.7 | 0.00 | 0.00 | 0.00 | 1018.5 | |
| 20260504014744 | 13 | 157 | 25.7 | 25.7 | 0.00 | 0.00 | 0.00 | 1018.8 | |
| 20260504013732 | 13 | 103 | 20.9 | 25.7 | 0.00 | 0.00 | 0.00 | 1018.7 | |
| 20260504012747 | 14 | 92 | 14.5 | 17.7 | 0.00 | 0.00 | 0.00 | 1018.7 | |
| 20260504011838 | 15 | 158 | 25.7 | 32.2 | 0.00 | 0.00 | 0.00 | 1018.9 | |
| 20260504010952 | 15 | 85 | 14.5 | 17.7 | 0.00 | 0.00 | 0.00 | 1018.9 | |
| 20260504010048 | 15 | 113 | 20.9 | 25.7 | 0.00 | 0.00 | 0.00 | 1018.9 | |
| 20260504005155 | 15 | 115 | 25.7 | 25.7 | 0.00 | 0.00 | 0.00 | 1018.7 | |
| 20260504004245 | 15 | 108 | 25.7 | 32.2 | 0.00 | 0.00 | 0.00 | 1018.8 | |
| 20260504003413 | 15 | 111 | 14.5 | 17.7 | 0.00 | 0.00 | 0.00 | 1018.9 | |
| 20260504002458 | 15 | 169 | 20.9 | 25.7 | 0.00 | 0.00 | 0.00 | 1018.9 | |
| 20260504001654 | 15 | 90 | 14.5 | 17.7 | 0.00 | 0.00 | 0.00 | 1018.9 | |
| 20260504000647 | 16 | 126 | 20.9 | 25.7 | 0.00 | 0.00 | 0.00 | 1019.1 | |
| 20260503235835 | 15 | 123 | 25.7 | 25.7 | 0.00 | 0.00 | 0.00 | 1019.0 | |
| 20260503234955 | 15 | 99 | 20.9 | 25.7 | 0.00 | 0.00 | 0.00 | 1018.9 | |
| 20260503233934 | 16 | 160 | 17.7 | 25.7 | 0.00 | 0.00 | 0.00 | 1018.9 | |
| 20260503232913 | 16 | 103 | 20.9 | 32.2 | 0.00 | 0.00 | 0.00 | 1018.9 | |
| 20260503231928 | 16 | 110 | 14.5 | 17.7 | 0.00 | 0.00 | 0.00 | 1019.1 | |
| 20260503231045 | 16 | 131 | 20.9 | 25.7 | 0.00 | 0.00 | 0.00 | 1019.1 | |
| 20260503230105 | 16 | 88 | 17.7 | 25.7 | 0.00 | 0.00 | 0.00 | 1019.3 | |
| 20260503225157 | 15 | 110 | 17.7 | 25.7 | 0.00 | 0.00 | 0.00 | 1019.1 | |
| 20260503224213 | 15 | 144 | 29.0 | 32.2 | 0.00 | 0.00 | 0.00 | 1019.1 | |
| 20260503223328 | 16 | 105 | 17.7 | 17.7 | 0.00 | 0.00 | 0.00 | 1019.1 | |
| 20260503222513 | 16 | 159 | 17.7 | 25.7 | 0.00 | 0.00 | 0.00 | 1019.4 | |
| 20260503221657 | 16 | 86 | 14.5 | 17.7 | 0.00 | 0.00 | 0.00 | 1019.4 | |
| 20260503220713 | 16 | 116 | 20.9 | 32.2 | 0.00 | 0.00 | 0.00 | 1019.2 | |
| 20260503215835 | 16 | 105 | 17.7 | 17.7 | 0.00 | 0.00 | 0.00 | 1019.2 | |
| 20260503214803 | 15 | 87 | 11.3 | 14.5 | 0.00 | 0.00 | 0.00 | 1019.3 | |
| 20260503213955 | 15 | 79 | 6.4 | 14.5 | 0.00 | 0.00 | 0.00 | 1019.3 | |
| 20260503213048 | 15 | 83 | 6.4 | 14.5 | 0.00 | 0.00 | 0.00 | 1019.2 | |
| 20260503211953 | 15 | 82 | 6.4 | 6.4 | 0.00 | 0.00 | 0.00 | 1019.4 | |
| 20260503210955 | 15 | 86 | 6.4 | 14.5 | 0.00 | 0.00 | 0.00 | 1019.3 | |
| 20260503205928 | 16 | 85 | 11.3 | 14.5 | 0.00 | 0.00 | 0.00 | 1019.5 | |
| 20260503204945 | 16 | 87 | 11.3 | 14.5 | 0.00 | 0.00 | 0.00 | 1019.4 | |
| 20260503204045 | 16 | 85 | 6.4 | 14.5 | 0.00 | 0.00 | 0.00 | 1019.3 | |
| 20260503203215 | 16 | 87 | 11.3 | 14.5 | 0.00 | 0.00 | 0.00 | 1019.4 | |
| 20260503202223 | 16 | 79 | 6.4 | 6.4 | 0.00 | 0.00 | 0.00 | 1019.5 | |
| 20260503201413 | 17 | 81 | 6.4 | 14.5 | 0.00 | 0.00 | 0.00 | 1019.5 | |
| 20260503200445 | 17 | 89 | 14.5 | 17.7 | 0.00 | 0.00 | 0.00 | 1019.6 | |
| 20260503195553 | 18 | 89 | 14.5 | 17.7 | 0.00 | 0.00 | 0.00 | 1019.6 | |
| 20260503194605 | 18 | 84 | 6.4 | 6.4 | 0.00 | 0.00 | 0.00 | 1019.5 | |
| 20260503193748 | 18 | 83 | 6.4 | 6.4 | 0.00 | 0.00 | 0.00 | 1019.4 | |
| 20260503192835 | 18 | 82 | 11.3 | 14.5 | 0.00 | 0.00 | 0.00 | 1019.5 | |
| 20260503192028 | 18 | 84 | 11.3 | 14.5 | 0.00 | 0.00 | 0.00 | 1019.4 | |
| 20260503191115 | 18 | 79 | 11.3 | 14.5 | 0.00 | 0.00 | 0.00 | 1019.7 | |
| 20260503190215 | 18 | 81 | 6.4 | 6.4 | 0.00 | 0.00 | 0.00 | 1019.4 | |
| 20260503185345 | 18 | 80 | 6.4 | 6.4 | 0.00 | 0.00 | 0.00 | 1019.5 | |
| 20260503184530 | 18 | 84 | 11.3 | 14.5 | 0.00 | 0.00 | 0.00 | 1019.3 | |
| 20260503183558 | 18 | 81 | 6.4 | 14.5 | 0.00 | 0.00 | 0.00 | 1019.3 | |
| 20260503182611 | 19 | 85 | 6.4 | 14.5 | 0.00 | 0.00 | 0.00 | 1019.2 | |
| 20260503181612 | 19 | 83 | 6.4 | 14.5 | 0.00 | 0.00 | 0.00 | 1019.2 | |
| 20260503180630 | 20 | 81 | 3.2 | 6.4 | 0.00 | 0.00 | 0.00 | 1019.0 | |
| 20260503175714 | 20 | 80 | 3.2 | 6.4 | 0.00 | 0.00 | 0.00 | 1019.1 | |
| 20260503174818 | 21 | 80 | 3.2 | 6.4 | 0.00 | 0.00 | 0.00 | 1019.2 | |
| 20260503173947 | 21 | 79 | 3.2 | 6.4 | 0.00 | 0.00 | 0.00 | 1019.0 | |
| 20260503173118 | 21 | 81 | 6.4 | 14.5 | 0.00 | 0.00 | 0.00 | 1018.9 | |
| 20260503172153 | 22 | 84 | 14.5 | 14.5 | 0.00 | 0.00 | 0.00 | 1019.1 | |
| 20260503171233 | 22 | 90 | 14.5 | 14.5 | 0.00 | 0.00 | 0.00 | 1018.9 | |
| 20260503170242 | 23 | 104 | 17.7 | 17.7 | 0.00 | 0.00 | 0.00 | 1019.0 | |
| 20260503150420 | 25 | 143 | 46.7 | 54.7 | 0.00 | 0.00 | 0.00 | 1019.6 | |
| 20260503140135 | 26 | 165 | 43.5 | 54.7 | 0.00 | 0.00 | 0.00 | 1020.2 | |
| 20260503130815 | 25 | 102 | 29.0 | 32.2 | 0.00 | 0.00 | 0.00 | 1020.5 | |
| 20260503110217 | 25 | 173 | 43.5 | 54.7 | 0.00 | 0.00 | 0.00 | 1021.8 |